Погода в Новотроицком

Россия / Республика Хакасия     53°09′07″N   91°03′02″E
темп.,
°C
ветер,
м/с
пор.,
м/с
влажн.,
%
обл.,
%
осадки,
мм/ч
давл.,
гПа
погр.,
м
28 января, чт
чт2801:00−4зюз91776100 0.0 1024936
04:00−5зюз81578100 0.0 10251040
07:00−5зюз91678100 0.0 1027977
10:00−5зюз91576100 0.0 10271025
13:00−4зюз101574100 0.0 10281049
16:00−4зюз91475100 0.0 1028858
19:00−5зюз81478100 0.0 1029681
22:00−5зюз91878100 0.0 10271155
29 января, пт
пт2901:00−4зюз91677100 0.0 10261036
04:00−3зюз101974100 0.0 10241187
07:00−3зюз112071100 0.0 10231124
10:00−2зюз132374100 0.0 10211121
13:000зюз152377100 0.0 10191523
16:00−1з91880100 0.1 10191504
19:00−4з71581100 0.1 1023939
22:00−6зюз8177868 0.0 1024645
30 января, сб
сб3001:00−5зюз8167847 0.0 1025495
04:00−6зюз8167819 0.0 1025507
07:00−6зюз7147859 0.0 1025485
10:00−5зюз81577100 0.0 1025881
13:00−4зюз81474100 0.0 10241246
16:00−4зюз8137498 0.0 1026916
19:00−12с458959 0.0 103186
22:00−18св4898100 0.3 1035453
31 января, вс
вс3101:00−24ссв3599100 0.4 1039122
04:00−26с2298100 0.1 104052
07:00−28ссв1298100 0.1 104224
10:00−27ссв1196100 0.0 104162
13:00−25св2292100 0.1 1038249
16:00−23ссв1293100 0.0 1036240
19:00−27ссз119998 0.1 103719
22:00−27зсз119997 0.0 103519
1 февраля, пн
пн101:00−26юв009899 0.1 103319
04:00−26всв0198100 0.0 103019
07:00−25ссв1197100 0.0 102819
10:00−24ю1194100 0.0 102737
13:00−20св0090100 0.0 1024162
16:00−18вюв1189100 0.0 1024100
19:00−21вюв119489 0.0 102620
22:00−21св119610 0.0 102720